Previsão horária em Barovo

Hoje, 24 Outubro, Sábado

Tempo Temperatura Precipitação Vento Pressão Humidade
00:00 +10°C° 0 mm 1 m/s 746 mmHg 94%
01:00 +10°C° 0 mm 1 m/s 746 mmHg 94%
02:00 +10°C° 0 mm 1 m/s 746 mmHg 94%
03:00 +10°C° 0 mm 1 m/s 746 mmHg 95%
04:00 +10°C° 0 mm 1 m/s 746 mmHg 95%
05:00 +10°C° 0 mm 1 m/s 745 mmHg 96%
06:00 +10°C° 0.2 mm 1 m/s 745 mmHg 96%
07:00 +10°C° 0.2 mm 1 m/s 745 mmHg 97%
08:00 +10°C° 0.2 mm 0 m/s 745 mmHg 97%
09:00 +11°C° 1.8 mm 1 m/s 745 mmHg 97%
10:00 +11°C° 1.8 mm 1 m/s 745 mmHg 97%
11:00 +10°C° 1.8 mm 2 m/s 745 mmHg 97%
12:00 +11°C° 0.4 mm 1 m/s 745 mmHg 95%
13:00 +11°C° 0.4 mm 1 m/s 745 mmHg 94%
14:00 +12°C° 0.4 mm 1 m/s 745 mmHg 92%
15:00 +11°C° 0 mm 1 m/s 746 mmHg 92%
16:00 +10°C° 0 mm 2 m/s 746 mmHg 92%
17:00 +10°C° 0 mm 2 m/s 746 mmHg 92%
18:00 +9°C° 0 mm 2 m/s 747 mmHg 92%
19:00 +9°C° 0 mm 2 m/s 747 mmHg 92%
20:00 +9°C° 0 mm 3 m/s 747 mmHg 91%
21:00 +9°C° 0 mm 3 m/s 748 mmHg 91%
22:00 +9°C° 0 mm 3 m/s 748 mmHg 91%
23:00 +9°C° 0 mm 3 m/s 748 mmHg 91%

Amanhã, 25 Outubro, Domingo

Tempo Temperatura Precipitação Vento Pressão Humidade
00:00 +9°C° 0 mm 3 m/s 748 mmHg 92%
01:00 +9°C° 0 mm 3 m/s 748 mmHg 94%
02:00 +9°C° 0 mm 3 m/s 749 mmHg 96%
03:00 +8°C° 0 mm 3 m/s 749 mmHg 96%
04:00 +8°C° 0 mm 2 m/s 749 mmHg 96%
05:00 +8°C° 0 mm 2 m/s 749 mmHg 97%
06:00 +8°C° 0 mm 2 m/s 749 mmHg 96%
07:00 +8°C° 0 mm 2 m/s 749 mmHg 96%
08:00 +8°C° 0 mm 2 m/s 750 mmHg 96%
09:00 +9°C° 0 mm 2 m/s 750 mmHg 92%
10:00 +10°C° 0 mm 2 m/s 750 mmHg 87%
11:00 +13°C° 0 mm 2 m/s 750 mmHg 82%
12:00 +14°C° 0 mm 2 m/s 751 mmHg 78%
13:00 +14°C° 0 mm 2 m/s 751 mmHg 74%
14:00 +15°C° 0 mm 2 m/s 751 mmHg 70%
15:00 +14°C° 0 mm 1 m/s 750 mmHg 76%
16:00 +13°C° 0 mm 1 m/s 750 mmHg 82%
17:00 +11°C° 0 mm 1 m/s 750 mmHg 87%
18:00 +11°C° 0 mm 1 m/s 750 mmHg 89%
19:00 +10°C° 0 mm 2 m/s 751 mmHg 91%
20:00 +9°C° 0 mm 2 m/s 751 mmHg 92%
21:00 +9°C° 0 mm 2 m/s 751 mmHg 93%
22:00 +9°C° 0 mm 2 m/s 751 mmHg 93%
23:00 +9°C° 0 mm 2 m/s 751 mmHg 94%

Depois de amanhã, 26 Outubro, Segunda-feira

Tempo Temperatura Precipitação Vento Pressão Humidade
00:00 +8°C° 0 mm 2 m/s 751 mmHg 95%
01:00 +8°C° 0 mm 2 m/s 751 mmHg 95%
02:00 +8°C° 0 mm 2 m/s 751 mmHg 95%
03:00 +8°C° 0 mm 3 m/s 751 mmHg 94%
04:00 +8°C° 0 mm 3 m/s 751 mmHg 94%
05:00 +8°C° 0 mm 3 m/s 750 mmHg 93%
06:00 +7°C° 0 mm 4 m/s 750 mmHg 90%
07:00 +8°C° 0 mm 4 m/s 750 mmHg 88%
08:00 +8°C° 0 mm 4 m/s 750 mmHg 85%
09:00 +9°C° 0 mm 5 m/s 750 mmHg 82%
10:00 +10°C° 0 mm 5 m/s 750 mmHg 79%
11:00 +11°C° 0 mm 6 m/s 749 mmHg 76%
12:00 +11°C° 0 mm 6 m/s 749 mmHg 75%
13:00 +13°C° 0 mm 6 m/s 749 mmHg 75%
14:00 +13°C° 0 mm 5 m/s 749 mmHg 74%
15:00 +13°C° 0 mm 5 m/s 749 mmHg 76%
16:00 +12°C° 0 mm 5 m/s 748 mmHg 77%
17:00 +12°C° 0 mm 5 m/s 748 mmHg 79%
18:00 +12°C° 0 mm 5 m/s 748 mmHg 81%
19:00 +10°C° 0 mm 5 m/s 749 mmHg 82%
20:00 +10°C° 0 mm 5 m/s 749 mmHg 84%
21:00 +10°C° 0 mm 5 m/s 749 mmHg 85%
22:00 +9°C° 0 mm 5 m/s 749 mmHg 87%
23:00 +9°C° 0 mm 5 m/s 749 mmHg 89%

, 27 Outubro, Terça-feira

Tempo Temperatura Precipitação Vento Pressão Humidade
00:00 +9°C° 0 mm 5 m/s 749 mmHg 90%
01:00 +9°C° 0 mm 5 m/s 749 mmHg 91%
02:00 +9°C° 0 mm 5 m/s 749 mmHg 92%
03:00 +8°C° 0 mm 5 m/s 749 mmHg 93%
04:00 +8°C° 0 mm 5 m/s 748 mmHg 93%
05:00 +8°C° 0 mm 5 m/s 748 mmHg 93%
06:00 +8°C° 0 mm 5 m/s 748 mmHg 93%
07:00 +8°C° 0 mm 5 m/s 749 mmHg 94%
08:00 +8°C° 0 mm 5 m/s 749 mmHg 94%
09:00 +10°C° 0 mm 5 m/s 749 mmHg 90%
10:00 +12°C° 0 mm 5 m/s 749 mmHg 87%
11:00 +13°C° 0 mm 5 m/s 749 mmHg 83%
12:00 +14°C° 0 mm 5 m/s 749 mmHg 80%
13:00 +14°C° 0 mm 5 m/s 749 mmHg 77%
14:00 +15°C° 0 mm 5 m/s 749 mmHg 74%
15:00 +14°C° 0 mm 4 m/s 749 mmHg 79%
16:00 +13°C° 0 mm 4 m/s 749 mmHg 83%
17:00 +13°C° 0 mm 4 m/s 749 mmHg 87%
18:00 +12°C° 0 mm 4 m/s 749 mmHg 88%
19:00 +12°C° 0 mm 4 m/s 749 mmHg 89%
20:00 +12°C° 0 mm 5 m/s 749 mmHg 89%
21:00 +11°C° 0 mm 4 m/s 749 mmHg 90%
22:00 +11°C° 0 mm 4 m/s 749 mmHg 90%
23:00 +11°C° 0 mm 4 m/s 749 mmHg 91%

27 Outubro, Terça-feira

Tempo Temperatura Precipitação Vento Pressão Humidade
00:00 +9°C° 0 mm 5 m/s 749 mmHg 90%
01:00 +9°C° 0 mm 5 m/s 749 mmHg 91%
02:00 +9°C° 0 mm 5 m/s 749 mmHg 92%
03:00 +8°C° 0 mm 5 m/s 749 mmHg 93%
04:00 +8°C° 0 mm 5 m/s 748 mmHg 93%
05:00 +8°C° 0 mm 5 m/s 748 mmHg 93%
06:00 +8°C° 0 mm 5 m/s 748 mmHg 93%
07:00 +8°C° 0 mm 5 m/s 749 mmHg 94%
08:00 +8°C° 0 mm 5 m/s 749 mmHg 94%
09:00 +10°C° 0 mm 5 m/s 749 mmHg 90%
10:00 +12°C° 0 mm 5 m/s 749 mmHg 87%
11:00 +13°C° 0 mm 5 m/s 749 mmHg 83%
12:00 +14°C° 0 mm 5 m/s 749 mmHg 80%
13:00 +14°C° 0 mm 5 m/s 749 mmHg 77%
14:00 +15°C° 0 mm 5 m/s 749 mmHg 74%
15:00 +14°C° 0 mm 4 m/s 749 mmHg 79%
16:00 +13°C° 0 mm 4 m/s 749 mmHg 83%
17:00 +13°C° 0 mm 4 m/s 749 mmHg 87%
18:00 +12°C° 0 mm 4 m/s 749 mmHg 88%
19:00 +12°C° 0 mm 4 m/s 749 mmHg 89%
20:00 +12°C° 0 mm 5 m/s 749 mmHg 89%
21:00 +11°C° 0 mm 4 m/s 749 mmHg 90%
22:00 +11°C° 0 mm 4 m/s 749 mmHg 90%
23:00 +11°C° 0 mm 4 m/s 749 mmHg 91%

28 Outubro, Quarta-feira

Tempo Temperatura Precipitação Vento Pressão Humidade
00:00 +10°C° 0 mm 4 m/s 749 mmHg 92%
01:00 +10°C° 0 mm 4 m/s 749 mmHg 92%
02:00 +10°C° 0 mm 4 m/s 749 mmHg 93%
03:00 +10°C° 0 mm 4 m/s 749 mmHg 93%
04:00 +10°C° 0 mm 4 m/s 749 mmHg 94%
05:00 +10°C° 0 mm 4 m/s 749 mmHg 95%
06:00 +8°C° 0 mm 4 m/s 749 mmHg 95%
07:00 +9°C° 0 mm 3 m/s 749 mmHg 95%
08:00 +9°C° 0 mm 3 m/s 750 mmHg 96%
09:00 +10°C° 0 mm 3 m/s 750 mmHg 93%
10:00 +11°C° 0 mm 3 m/s 750 mmHg 90%
11:00 +12°C° 0 mm 3 m/s 750 mmHg 87%
12:00 +13°C° 0 mm 3 m/s 750 mmHg 85%
13:00 +14°C° 0 mm 3 m/s 750 mmHg 83%
14:00 +14°C° 0 mm 3 m/s 750 mmHg 81%
15:00 +14°C° 0 mm 3 m/s 750 mmHg 83%
16:00 +13°C° 0 mm 3 m/s 750 mmHg 86%
17:00 +14°C° 0 mm 2 m/s 750 mmHg 88%
18:00 +14°C° 0 mm 2 m/s 750 mmHg 90%
19:00 +13°C° 0 mm 2 m/s 750 mmHg 91%
20:00 +13°C° 0 mm 2 m/s 750 mmHg 93%
21:00 +13°C° 0 mm 2 m/s 750 mmHg 93%
22:00 +12°C° 0 mm 2 m/s 750 mmHg 94%
23:00 +12°C° 0 mm 2 m/s 750 mmHg 95%

29 Outubro, Quinta-feira

Tempo Temperatura Precipitação Vento Pressão Humidade
00:00 +12°C° 0 mm 2 m/s 750 mmHg 95%
01:00 +11°C° 0 mm 3 m/s 750 mmHg 96%
02:00 +11°C° 0 mm 3 m/s 750 mmHg 96%
03:00 +11°C° 0 mm 3 m/s 750 mmHg 95%
04:00 +11°C° 0 mm 3 m/s 750 mmHg 94%
05:00 +12°C° 0 mm 2 m/s 750 mmHg 94%
06:00 +11°C° 0 mm 3 m/s 750 mmHg 93%
07:00 +11°C° 0 mm 3 m/s 750 mmHg 92%
08:00 +11°C° 0 mm 3 m/s 750 mmHg 91%
09:00 +12°C° 0 mm 3 m/s 750 mmHg 88%
10:00 +13°C° 0 mm 4 m/s 750 mmHg 84%
11:00 +13°C° 0 mm 4 m/s 750 mmHg 81%
12:00 +14°C° 0 mm 4 m/s 750 mmHg 80%
13:00 +14°C° 0 mm 4 m/s 750 mmHg 79%
14:00 +14°C° 0 mm 3 m/s 750 mmHg 78%
15:00 +14°C° 0 mm 3 m/s 750 mmHg 81%
16:00 +13°C° 0 mm 3 m/s 750 mmHg 85%
17:00 +13°C° 0 mm 2 m/s 750 mmHg 88%
18:00 +13°C° 0 mm 2 m/s 750 mmHg 86%
19:00 +13°C° 0 mm 2 m/s 750 mmHg 84%
20:00 +13°C° 0 mm 2 m/s 751 mmHg 82%
21:00 +12°C° 0.2 mm 2 m/s 751 mmHg 82%
22:00 +12°C° 0.2 mm 2 m/s 751 mmHg 83%
23:00 +12°C° 0.2 mm 2 m/s 751 mmHg 83%
Mostrar mais